TimeEST,TemperatureF,Dew PointF,Humidity,Sea Level PressureIn,VisibilityMPH,Wind Direction,Wind SpeedMPH,Gust SpeedMPH,PrecipitationIn,Events,Conditions,WindDirDegrees,DateUTC
12:56 AM,25.0,21.9,88,29.82,6.0,West,6.9,-,N/A,,Mostly Cloudy,270,2013-02-14 05:56:00
1:56 AM,25.0,21.0,85,29.83,7.0,West,8.1,-,N/A,,Overcast,260,2013-02-14 06:56:00
2:56 AM,25.0,21.0,85,29.85,7.0,WSW,10.4,-,N/A,,Overcast,240,2013-02-14 07:56:00
3:56 AM,24.1,21.0,88,29.86,7.0,WSW,9.2,-,N/A,,Overcast,250,2013-02-14 08:56:00
4:56 AM,24.1,19.9,84,29.88,7.0,WSW,10.4,-,N/A,,Overcast,250,2013-02-14 09:56:00
5:56 AM,24.1,21.0,88,29.91,6.0,WSW,11.5,-,N/A,,Overcast,240,2013-02-14 10:56:00
6:56 AM,25.0,21.0,85,29.94,6.0,SW,9.2,-,N/A,,Overcast,230,2013-02-14 11:56:00
7:56 AM,25.0,21.9,88,29.95,4.0,SW,6.9,-,N/A,,Overcast,230,2013-02-14 12:56:00
8:56 AM,26.1,23.0,88,29.95,3.0,SSW,8.1,-,N/A,,Overcast,210,2013-02-14 13:56:00
9:22 AM,26.6,24.8,93,29.88,2.5,SW,10.4,-,N/A,,Overcast,230,2013-02-14 14:22:00
9:36 AM,26.6,24.8,93,29.88,3.0,SW,9.2,-,N/A,,Overcast,220,2013-02-14 14:36:00
10:56 AM,28.9,25.0,85,29.93,3.0,SSW,8.1,-,N/A,,Overcast,210,2013-02-14 15:56:00
11:20 AM,28.4,26.6,93,29.87,2.0,SSW,5.8,-,N/A,,Overcast,210,2013-02-14 16:20:00
11:44 AM,28.4,26.6,93,29.87,3.0,SSW,4.6,-,N/A,,Overcast,200,2013-02-14 16:44:00
11:56 AM,30.0,26.1,85,29.93,3.0,South,6.9,-,N/A,,Overcast,190,2013-02-14 16:56:00
12:56 PM,30.9,27.0,85,29.93,5.0,SSW,9.2,-,N/A,,Overcast,210,2013-02-14 17:56:00
1:56 PM,30.9,28.0,89,29.91,5.0,SW,9.2,-,N/A,,Overcast,220,2013-02-14 18:56:00
2:52 PM,33.8,28.4,81,29.84,2.0,SSW,8.1,-,N/A,,Overcast,200,2013-02-14 19:52:00
2:53 PM,33.1,28.9,85,29.90,2.0,SSW,6.9,-,N/A,,Overcast,200,2013-02-14 19:53:00
3:18 PM,33.8,28.4,81,29.83,3.0,Variable,6.9,-,N/A,,Overcast,0,2013-02-14 20:18:00
3:49 PM,33.8,30.2,87,29.83,2.0,SSW,5.8,-,N/A,,Overcast,200,2013-02-14 20:49:00
3:56 PM,33.1,30.0,89,29.89,1.5,South,6.9,-,N/A,,Overcast,180,2013-02-14 20:56:00
4:17 PM,33.8,30.2,87,29.83,1.2,Variable,3.5,-,N/A,,Overcast,0,2013-02-14 21:17:00
4:24 PM,33.8,30.2,87,29.82,1.2,SSE,4.6,-,N/A,,Overcast,160,2013-02-14 21:24:00
4:37 PM,33.8,30.2,87,29.82,2.0,South,4.6,-,N/A,,Overcast,190,2013-02-14 21:37:00
4:56 PM,33.1,30.9,92,29.88,2.0,South,3.5,-,N/A,,Overcast,170,2013-02-14 21:56:00
5:05 PM,33.8,30.2,87,29.82,1.8,Variable,5.8,-,N/A,,Overcast,0,2013-02-14 22:05:00
5:13 PM,33.8,30.2,87,29.82,1.8,Variable,4.6,-,N/A,,Overcast,0,2013-02-14 22:13:00
5:23 PM,33.8,30.2,87,29.82,2.0,Variable,4.6,-,N/A,,Overcast,0,2013-02-14 22:23:00
5:34 PM,33.8,30.2,87,29.82,3.0,South,6.9,-,N/A,,Overcast,170,2013-02-14 22:34:00
5:56 PM,34.0,30.0,85,29.89,7.0,SSW,6.9,-,N/A,,Overcast,200,2013-02-14 22:56:00
6:56 PM,35.1,28.0,76,29.89,10.0,SSW,5.8,-,N/A,,Overcast,200,2013-02-14 23:56:00
7:52 PM,33.8,28.4,81,29.85,1.8,SW,12.7,18.4,0.00,Snow,Light Snow,220,2013-02-15 00:52:00
7:56 PM,34.0,28.9,82,29.91,1.5,SSW,9.2,18.4,0.00,Snow,Light Snow,210,2013-02-15 00:56:00
8:04 PM,33.8,28.4,81,29.85,3.0,SW,10.4,18.4,0.00,Snow,Light Snow,220,2013-02-15 01:04:00
8:24 PM,33.8,28.4,81,29.84,4.0,SSW,8.1,-,0.00,Snow,Light Snow,210,2013-02-15 01:24:00
8:32 PM,33.8,28.4,81,29.84,5.0,SSW,9.2,-,0.00,Snow,Light Snow,200,2013-02-15 01:32:00
8:56 PM,34.0,28.9,82,29.90,1.5,SW,10.4,-,0.00,Snow,Light Snow,220,2013-02-15 01:56:00
9:08 PM,33.8,30.2,87,29.84,3.0,SW,8.1,-,0.00,Snow,Light Snow,220,2013-02-15 02:08:00
9:20 PM,35.6,28.4,75,29.84,9.0,SW,10.4,17.3,0.00,,Overcast,220,2013-02-15 02:20:00
9:47 PM,35.6,28.4,75,29.84,2.5,SW,10.4,-,0.00,Snow,Light Snow,220,2013-02-15 02:47:00
9:56 PM,33.1,30.0,89,29.89,1.0,SSW,6.9,-,0.00,Snow,Light Snow,200,2013-02-15 02:56:00
10:04 PM,33.8,30.2,87,29.83,3.0,SSW,6.9,-,0.00,Snow,Light Snow,210,2013-02-15 03:04:00
10:30 PM,33.8,30.2,87,29.83,6.0,SSW,9.2,-,0.00,,Mostly Cloudy,210,2013-02-15 03:30:00
10:56 PM,33.1,30.9,92,29.87,7.0,SSW,6.9,-,0.00,,Scattered Clouds,210,2013-02-15 03:56:00
11:56 PM,34.0,30.0,85,29.87,10.0,SSW,10.4,-,N/A,,Mostly Cloudy,210,2013-02-15 04:56:00